Skip Page Navigation
NASA JPL Caltech
NASA Logo - Jet Propulsion Laboratory + View the NASA Portal
+ Near-Earth Object (NEO) Program
Search JPL
JPL Home Earth Solar System Stars & Galaxies Technology
JPL Solar System Dynamics
BODIES ORBITS EPHEMERIDES TOOLS PHYSICAL DATA DISCOVERY FAQ SITE MAP
JPL Small-Body Database Browser
Search: [ help ]  
58325 (1994 RE11)
Classification: Mars-crossing Asteroid          SPK-ID: 2058325
Ephemeris | Orbit Diagram | Orbital Elements | Physical Parameters | Discovery Circumstances ]

[ show orbit diagram ]
Orbital Elements at Epoch 2456400.5 (2013-Apr-18.0) TDB
Reference: MPO226492 (heliocentric ecliptic J2000)
 Element Value Uncertainty (1-sigma)   Units 
e 0.3704870 n/a  
a 2.5290504 n/a AU
q 1.5920701 n/a AU
i 14.33684 n/a deg
node 172.40868 n/a deg
peri 208.52701 n/a deg
M 211.64380 n/a deg
tp 2457005.8936257
(2014-Dec-14.39362570)
n/a JED
period 1469.0434593
4.02
n/a
n/a
d
yr
n 0.24505742 n/a deg/d
Q 3.4660307 n/a AU
  Orbit Determination Parameters
   # obs. used (total)      326  
   first obs. used      1986-??-??  
   last obs. used      2012-03-16  
   # oppositions      10  
   planetary ephem.      DE403  
   condition code      1  
   fit RMS      0.54  
   data source      MPC:mpn  
   producer      MPCLINUX  

Additional Information
 T_jup = 3.312 

Ephemeris | Orbit Diagram | Orbital Elements | Physical Parameters | Discovery Circumstances ]

Physical Parameter Table
Parameter Symbol Value Units Sigma Reference Notes
absolute magnitude H 16.4 mag n/a MPO226492  

58325 (1994 RE11)          Discovered 1994-Sep-11 by McNaught, R. H. at Siding Spring (413)
Reference: 20030614/Numbers.arcLast Updated: 2004-04-19

Alternate Designations
 1994 RE11 = 1998 QB45 
Ephemeris | Orbit Diagram | Orbital Elements | Physical Parameters | Discovery Circumstances ]
ABOUT SSD CREDITS/AWARDS PRIVACY/COPYRIGHT GLOSSARY LINKS
FirstGov 2013-Jun-19 05:27 UT
(server date/time)  
NASA Home Page
Site Manager:   Donald K. Yeomans
Webmaster  Alan B. Chamberlin